Meteo pe oră la Dziobin

Astăzi, 3 Martie, Miercuri

Timp Temperatura Precipitaţii Vânt Presiune Umiditate
00:00 +3°C° 0 mm 0 m/s 763 mmHg 87%
01:00 +2°C° 0 mm 0 m/s 763 mmHg 87%
02:00 +2°C° 0 mm 0 m/s 763 mmHg 88%
03:00 +3°C° 0 mm 1 m/s 763 mmHg 88%
04:00 +3°C° 0 mm 1 m/s 762 mmHg 88%
05:00 +3°C° 0 mm 1 m/s 762 mmHg 88%
06:00 +2°C° 0 mm 1 m/s 762 mmHg 89%
07:00 +2°C° 0 mm 1 m/s 762 mmHg 89%
08:00 +4°C° 0 mm 1 m/s 761 mmHg 82%
09:00 +5°C° 0 mm 2 m/s 761 mmHg 75%
10:00 +6°C° 0 mm 2 m/s 761 mmHg 68%
11:00 +8°C° 0 mm 2 m/s 760 mmHg 63%
12:00 +9°C° 0 mm 2 m/s 760 mmHg 59%
13:00 +10°C° 0 mm 3 m/s 759 mmHg 54%
14:00 +10°C° 0 mm 2 m/s 758 mmHg 56%
15:00 +10°C° 0 mm 2 m/s 758 mmHg 59%
16:00 +10°C° 0 mm 2 m/s 757 mmHg 61%
17:00 +9°C° 0 mm 2 m/s 757 mmHg 65%
18:00 +8°C° 0 mm 3 m/s 756 mmHg 70%
19:00 +5°C° 0 mm 3 m/s 756 mmHg 74%
20:00 +5°C° 0 mm 3 m/s 755 mmHg 76%
21:00 +5°C° 0 mm 3 m/s 755 mmHg 78%
22:00 +4°C° 0 mm 4 m/s 754 mmHg 80%
23:00 +4°C° 0 mm 4 m/s 753 mmHg 83%

Mâine, 4 Martie, Joi

Timp Temperatura Precipitaţii Vânt Presiune Umiditate
00:00 +4°C° 0 mm 4 m/s 753 mmHg 86%
01:00 +3°C° 0 mm 4 m/s 753 mmHg 89%
02:00 +3°C° 0 mm 4 m/s 752 mmHg 90%
03:00 +2°C° 0 mm 5 m/s 751 mmHg 91%
04:00 +2°C° 0 mm 5 m/s 750 mmHg 91%
05:00 +3°C° 0 mm 5 m/s 750 mmHg 92%
06:00 +3°C° 0 mm 5 m/s 750 mmHg 93%
07:00 +3°C° 0 mm 5 m/s 750 mmHg 93%
08:00 +3°C° 0 mm 6 m/s 750 mmHg 90%
09:00 +3°C° 0 mm 6 m/s 749 mmHg 86%
10:00 +4°C° 0 mm 7 m/s 749 mmHg 82%
11:00 +3°C° 0 mm 6 m/s 749 mmHg 80%
12:00 +3°C° 0 mm 6 m/s 749 mmHg 78%
13:00 +3°C° 0 mm 6 m/s 749 mmHg 76%
14:00 +3°C° 0 mm 6 m/s 749 mmHg 76%
15:00 +2°C° 0 mm 6 m/s 748 mmHg 76%
16:00 +1°C° 0 mm 5 m/s 748 mmHg 76%
17:00 +1°C° 0 mm 5 m/s 748 mmHg 80%
18:00 +1°C° 0 mm 4 m/s 749 mmHg 83%
19:00 0°C° 0 mm 4 m/s 749 mmHg 87%
20:00 0°C° 0 mm 4 m/s 749 mmHg 86%
21:00 -1°C° 0 mm 4 m/s 749 mmHg 86%
22:00 -2°C° 0 mm 4 m/s 750 mmHg 86%
23:00 -2°C° 0 mm 4 m/s 750 mmHg 84%

Poimâine, 5 Martie, Vineri

Timp Temperatura Precipitaţii Vânt Presiune Umiditate
00:00 -2°C° 0 mm 4 m/s 750 mmHg 83%
01:00 -3°C° 0 mm 4 m/s 751 mmHg 82%
02:00 -3°C° 0 mm 4 m/s 751 mmHg 83%
03:00 -3°C° 0 mm 4 m/s 751 mmHg 83%
04:00 -4°C° 0 mm 3 m/s 751 mmHg 83%
05:00 -4°C° 0 mm 3 m/s 752 mmHg 82%
06:00 -4°C° 0 mm 3 m/s 752 mmHg 80%
07:00 -4°C° 0 mm 3 m/s 753 mmHg 79%
08:00 -1°C° 0 mm 3 m/s 753 mmHg 70%
09:00 -1°C° 0 mm 4 m/s 753 mmHg 61%
10:00 0°C° 0 mm 4 m/s 754 mmHg 52%
11:00 +1°C° 0 mm 4 m/s 754 mmHg 49%
12:00 +1°C° 0 mm 4 m/s 754 mmHg 46%
13:00 +3°C° 0 mm 4 m/s 754 mmHg 43%
14:00 +1°C° 0 mm 4 m/s 754 mmHg 44%
15:00 +1°C° 0 mm 4 m/s 754 mmHg 44%
16:00 +1°C° 0 mm 4 m/s 754 mmHg 45%
17:00 0°C° 0.1 mm 4 m/s 755 mmHg 52%
18:00 -1°C° 0.1 mm 4 m/s 756 mmHg 59%
19:00 -2°C° 0.1 mm 4 m/s 756 mmHg 65%
20:00 -2°C° 0 mm 3 m/s 757 mmHg 68%
21:00 -2°C° 0 mm 3 m/s 757 mmHg 70%
22:00 -4°C° 0 mm 3 m/s 758 mmHg 73%
23:00 -4°C° 0 mm 3 m/s 758 mmHg 75%

6 Martie, Sâmbătă

Timp Temperatura Precipitaţii Vânt Presiune Umiditate
00:00 -4°C° 0 mm 3 m/s 759 mmHg 77%
01:00 -4°C° 0 mm 3 m/s 759 mmHg 78%
02:00 -4°C° 0 mm 3 m/s 760 mmHg 77%
03:00 -4°C° 0 mm 3 m/s 760 mmHg 75%
04:00 -4°C° 0 mm 3 m/s 760 mmHg 73%
05:00 -4°C° 0 mm 3 m/s 761 mmHg 71%
06:00 -3°C° 0 mm 2 m/s 761 mmHg 69%
07:00 -3°C° 0 mm 2 m/s 761 mmHg 67%
08:00 -2°C° 0 mm 3 m/s 761 mmHg 61%
09:00 -1°C° 0 mm 3 m/s 762 mmHg 55%
10:00 0°C° 0 mm 3 m/s 762 mmHg 49%
11:00 0°C° 0 mm 4 m/s 762 mmHg 46%
12:00 +1°C° 0 mm 4 m/s 761 mmHg 43%
13:00 +1°C° 0 mm 5 m/s 761 mmHg 40%
14:00 +1°C° 0 mm 5 m/s 761 mmHg 41%
15:00 +1°C° 0 mm 5 m/s 760 mmHg 42%
16:00 +1°C° 0 mm 5 m/s 760 mmHg 43%
17:00 0°C° 0 mm 5 m/s 760 mmHg 47%
18:00 -1°C° 0 mm 5 m/s 760 mmHg 50%
19:00 -2°C° 0 mm 4 m/s 759 mmHg 54%
20:00 -2°C° 0 mm 5 m/s 759 mmHg 53%
21:00 -2°C° 0 mm 5 m/s 759 mmHg 52%
22:00 -3°C° 0 mm 6 m/s 759 mmHg 52%
23:00 -3°C° 0 mm 6 m/s 758 mmHg 52%

7 Martie, Duminică

Timp Temperatura Precipitaţii Vânt Presiune Umiditate
00:00 -3°C° 0 mm 7 m/s 757 mmHg 53%
01:00 -3°C° 0 mm 7 m/s 757 mmHg 53%
02:00 -3°C° 0 mm 7 m/s 756 mmHg 55%
03:00 -3°C° 0 mm 7 m/s 756 mmHg 57%
04:00 -4°C° 0 mm 7 m/s 755 mmHg 58%
05:00 -3°C° 0 mm 7 m/s 755 mmHg 63%
06:00 -3°C° 0 mm 7 m/s 754 mmHg 68%
07:00 -3°C° 0 mm 7 m/s 754 mmHg 73%
08:00 -4°C° 0 mm 8 m/s 754 mmHg 72%
09:00 -2°C° 0 mm 8 m/s 754 mmHg 71%
10:00 -2°C° 0 mm 8 m/s 753 mmHg 70%
11:00 -1°C° 0 mm 8 m/s 753 mmHg 68%
12:00 -1°C° 0 mm 8 m/s 752 mmHg 67%
13:00 -1°C° 0 mm 8 m/s 752 mmHg 65%
14:00 -1°C° 0 mm 8 m/s 751 mmHg 66%
15:00 -1°C° 0 mm 8 m/s 751 mmHg 67%
16:00 -1°C° 0 mm 8 m/s 750 mmHg 67%
17:00 -2°C° 0 mm 7 m/s 750 mmHg 70%
18:00 -2°C° 0 mm 7 m/s 750 mmHg 74%
19:00 -3°C° 0 mm 6 m/s 750 mmHg 77%
20:00 -3°C° 0.2 mm 6 m/s 750 mmHg 82%
21:00 -4°C° 0.2 mm 6 m/s 751 mmHg 88%
22:00 -4°C° 0.2 mm 5 m/s 751 mmHg 93%
23:00 -3°C° 0.2 mm 4 m/s 751 mmHg 90%

8 Martie, Luni

Timp Temperatura Precipitaţii Vânt Presiune Umiditate
00:00 -4°C° 0.2 mm 4 m/s 752 mmHg 87%
01:00 -4°C° 0.2 mm 3 m/s 752 mmHg 84%
02:00 -5°C° 0 mm 3 m/s 752 mmHg 83%
03:00 -5°C° 0 mm 3 m/s 753 mmHg 82%
04:00 -6°C° 0 mm 3 m/s 753 mmHg 81%
05:00 -6°C° 0 mm 3 m/s 754 mmHg 78%
06:00 -6°C° 0 mm 3 m/s 754 mmHg 76%
07:00 -7°C° 0 mm 4 m/s 755 mmHg 73%
08:00 -5°C° 0 mm 4 m/s 755 mmHg 67%
09:00 -4°C° 0 mm 4 m/s 756 mmHg 61%
10:00 -4°C° 0 mm 5 m/s 757 mmHg 55%
11:00 -2°C° 0 mm 5 m/s 757 mmHg 54%
12:00 -2°C° 0 mm 5 m/s 757 mmHg 53%
13:00 -1°C° 0 mm 5 m/s 757 mmHg 52%
14:00 -1°C° 0 mm 4 m/s 757 mmHg 54%
15:00 -1°C° 0 mm 4 m/s 758 mmHg 56%
16:00 -1°C° 0 mm 4 m/s 758 mmHg 58%
17:00 -2°C° 0 mm 3 m/s 758 mmHg 64%
18:00 -4°C° 0 mm 3 m/s 758 mmHg 69%
19:00 -4°C° 0 mm 2 m/s 759 mmHg 74%
20:00 -4°C° 0 mm 2 m/s 759 mmHg 75%
21:00 -2°C° 0 mm 1 m/s 760 mmHg 76%
22:00 -2°C° 0 mm 1 m/s 760 mmHg 77%
23:00 -2°C° 0 mm 1 m/s 760 mmHg 76%
Arată mai mult

Formular de consimțământ

Meteoprog și furnizorii noștri de servicii pot stoca și accesa date personale, precum cookies, identificatori de dispozitiv sau alte tehnologii similare pe dispozitivul dumneavoastră și procesa astfel de date pentru a personaliza conținutul și reclamele, dar și pentru a oferi caracteristici de social media și pentru a analiza traficul.

  • Stocarea și/sau accesarea informațiilor pe dispozitivul dumneavoastră

    Cookies, identificatori de dispozitiv sau alte informații pot fi stocate sau accesate pe dispozitiv în scopurile indicate mai sus.

  • Reclame și conținut personalizat, evaluarea reclamelor și a conținutului, informații despre audiențe și dezvoltarea produselor

    Reclamele și conținutul pot fi personalizate pe baza unui profil. Pot fi adăugate date suplimentare pentru a personaliza mai bine reclamele și conținutul. Performanța reclamelor și conținutului poate fi măsurată. Pot fi obținute informații despre utilizatorii care au văzut reclamele și conținutul. Aceste date pot fi utilizate pentru a dezvolta sau îmbunătăți experiența utilizatorilor, sistemele și software-ul.

Dând clic pe ‘Sunt de acord’, permiteți utilizarea cookie-urilor menționate, a identificatorilor de dispozitiv, balizelor web sau altor tehnologii similare. Setările pot fi modificate din browser-ul dispozitivului dumneavoastră.

În anumite scopuri, interesele legitime pot prima asupra consimțământului. Puteți citi mai multe informații în acest sens în Politica privind Confidențialitatea Datelor și Cookie.